This demonstration page uses our WeatherBlox Daily Observations layout. Learn more.

Left ArrowRight Arrow

Hourly Observations for August 17, 2015

Temp ( °F °C ) Dew Point ( °F °C ) Humidity (%) Winds ( mph kmh ) Pressure ( in mb ) Visibility ( mi km ) Precip ( " mm )
12:53 am 00:53 Clear 72 22.2 33 0.6 24 24 Calm 29.81 1010 10 16 0.00 0.00
1:53 am 01:53 Clear 71 21.7 32 0 24 24 NW 3 6 29.81 1010 10 16 0.00 0.00
2:53 am 02:53 Clear 68 20 32 0 26 26 Calm 29.81 1010 10 16 0.00 0.00
3:53 am 03:53 Clear 68 20 33 0.6 27 27 Calm 29.81 1010 10 16 0.00 0.00
4:53 am 04:53 Clear 65 18.3 32 0 29 29 Calm 29.82 1010 10 16 0.00 0.00
5:53 am 05:53 Clear 64 17.8 34 1.1 33 33 N 3 6 29.82 1010 10 16 0.00 0.00
6:53 am 06:53 Sunny 64 17.8 36 2.2 35 35 Calm 29.83 1010 10 16 0.00 0.00
7:53 am 07:53 Sunny 74 23.3 39 3.9 28 28 N 3 6 29.84 1010 10 16 0.00 0.00
8:53 am 08:53 Sunny 81 27.2 42 5.6 25 25 VRB 3 6 29.83 1010 10 16 0.00 0.00
9:53 am 09:53 Sunny 90 32.2 38 3.3 16 16 NNE 8 13 29.83 1010 10 16 0.00 0.00
10:53 am 10:53 Sunny 95 35 37 2.8 13 13 NW 7 11 29.83 1010 10 16 0.00 0.00
11:53 am 11:53 Sunny 98 36.7 36 2.2 11 11 Calm 29.82 1010 10 16 0.00 0.00
12:53 pm 12:53 Sunny 102 38.9 35 1.7 10 10 E 5 7 29.80 1009 10 16 0.00 0.00
1:53 pm 13:53 Sunny 104 40 36 2.2 9 9 WSW 5 7 29.78 1008 10 16 0.00 0.00
2:53 pm 14:53 Sunny 105 40.6 32 0 8 8 VRB 5 7 29.76 1008 8 13 0.00 0.00
3:53 pm 15:53 Sunny 107 41.7 34 1.1 8 8 SW 9 15 29.74 1007 8 13 0.00 0.00
4:53 pm 16:53 Sunny 106 41.1 34 1.1 8 8 SSE 7 11 29.73 1007 10 16 0.00 0.00
5:53 pm 17:53 Sunny 105 40.6 39 3.9 10 10 SSE 7 11 29.72 1007 7 11 0.00 0.00
6:53 pm 18:53 Partly Cloudy with Smoke 102 38.9 42 5.6 13 13 SSE 7 11 29.72 1006 8 13 0.00 0.00
7:53 pm 19:53 Mostly Cloudy with Smoke 95 35 46 7.8 19 19 SSE 5 7 29.72 1007 8 13 0.00 0.00
8:53 pm 20:53 Clear with Smoke 89 31.7 47 8.3 23 23 Calm 29.74 1007 8 13 0.00 0.00
9:53 pm 21:53 Clear with Smoke 87 30.6 45 7.2 23 23 N 3 6 29.76 1008 9 14 0.00 0.00
10:53 pm 22:53 Clear with Smoke 82 27.8 45 7.2 27 27 VRB 3 6 29.78 1008 9 14 0.00 0.00
11:53 pm 23:53 Clear with Smoke 78 25.6 45 7.2 31 31 Calm 29.79 1009 9 14 0.00 0.00

Powered by AerisWeather